RH
9 11 13 14 14 14 12 11 11 10 10 11 11 11 11 11 12 12 13 13 14 15 16 17 17 18 19 20 21 20 21 22 22 22 23 23 22 22 22 21 20 19 18 17 17 17 17 18 20 19 19 16 16 14 16 23 21 24 25 35 45 30 25 27 27 25 20 24 23 25 35 42 50 54 59 61 58 51 45 45 45 48 47 48 54 67 75 61
9 11 13 13 14 12 11 11 10 9 9 9 11 11 11 11 11 12 12 13 13 14 15 15 16 18 19 19 19 20 22 20 20 23 21 21 25 26 24 22 22 21 20 21 21 21 21 25 25 23 25 18 14 19 20 13 17 30 27 38 52 36 25 25 21 21 33 47 49 51 59 64 66 68 71 73 72 66 62 57 52 49 45 45 48 60 63 46
8 11 12 12 13 12 12 11 10 9 8 9 10 10 11 11 12 12 13 13 13 14 14 15 17 17 18 18 20 21 22 25 33 38 36 41 51 56 54 47 39 33 30 26 24 23 23 29 34 37 38 30 30 39 35 27 30 30 29 51 54 28 22 28 32 46 65 72 68 68 67 64 61 63 65 66 64 61 63 58 52 50 44 46 46 45 43 38
8 10 11 12 12 12 12 11 9 8 8 9 9 10 11 11 12 13 13 14 13 14 14 16 17 17 18 16 17 19 26 41 53 59 59 59 63 67 68 62 52 47 45 35 28 29 36 49 60 66 67 62 65 68 60 56 56 41 35 48 36 16 27 44 59 71 76 74 68 67 66 63 58 58 59 59 60 58 58 55 55 55 47 47 46 40 39 41
9 9 11 12 12 12 11 10 9 8 8 8 9 10 11 12 13 13 14 14 14 15 14 16 16 17 17 17 24 30 44 60 60 62 66 61 60 60 61 66 64 60 61 59 56 60 70 81 88 92 91 86 82 80 79 76 71 56 39 33 19 18 43 66 76 74 69 67 66 68 68 65 61 59 56 56 58 54 51 50 49 48 41 40 40 38 43 50
10 9 10 11 11 12 11 10 9 9 8 9 10 11 11 12 13 13 14 14 15 15 15 16 15 19 21 28 40 45 59 73 64 59 59 55 57 56 59 72 76 69 72 80 83 87 94 98 99 97 92 90 88 83 85 84 80 68 42 27 24 38 66 77 72 65 62 60 61 65 65 64 63 60 54 53 55 52 49 47 43 41 38 36 36 37 45 59
10 10 10 10 11 11 11 11 9 9 9 9 10 11 12 13 13 15 14 15 16 15 16 16 17 23 27 32 44 56 72 82 80 76 70 65 65 65 69 77 79 78 84 92 95 96 96 98 97 90 87 93 95 86 80 79 77 67 46 37 47 65 76 70 63 61 59 56 57 60 60 60 62 60 55 53 54 54 55 50 45 45 42 38 37 38 46 62
9 10 11 11 10 10 11 11 10 10 9 10 11 12 13 13 15 15 15 16 16 17 17 18 22 24 28 33 48 73 85 84 87 89 87 86 83 83 88 92 90 84 87 96 97 94 91 94 94 87 84 86 88 85 78 77 71 64 58 59 68 73 69 61 61 63 60 59 57 55 52 48 50 51 50 51 52 54 57 56 55 54 50 46 43 41 45 57
8 9 11 12 12 10 10 11 11 10 10 10 11 12 14 14 16 16 16 17 16 18 18 20 25 26 34 44 58 81 86 82 86 86 84 85 83 83 88 95 98 87 84 93 94 90 88 90 91 84 75 70 74 77 74 74 70 66 66 66 68 65 62 62 63 64 60 52 46 43 41 35 34 39 40 40 42 45 46 49 51 52 52 52 51 49 50 54
8 8 10 11 12 11 10 10 11 10 10 10 11 12 14 14 15 17 17 18 17 18 19 23 27 30 41 55 70 82 80 82 84 79 77 78 79 81 81 87 93 86 79 85 91 93 88 82 82 78 71 66 66 65 62 62 59 59 61 58 59 58 56 56 53 51 45 37 34 35 36 34 35 40 38 34 35 36 35 36 39 40 42 44 47 50 51 52
7 8 9 9 10 10 9 9 10 10 10 10 11 12 13 14 15 16 17 18 18 19 20 24 28 31 37 53 72 76 72 77 76 71 72 72 75 77 77 79 84 84 78 79 83 85 84 80 80 79 75 69 59 54 54 53 51 50 51 49 47 45 43 43 43 41 38 37 36 40 43 40 42 44 37 34 34 33 32 32 32 33 34 36 39 42 44 48
7 8 9 9 9 9 9 9 9 10 10 10 11 11 12 13 14 16 17 18 19 20 23 26 29 31 35 48 62 62 65 74 72 70 69 67 72 71 69 73 79 82 80 80 77 74 76 77 76 75 74 72 64 57 54 54 55 54 53 54 51 49 49 50 50 47 45 42 39 50 53 41 37 37 32 31 29 27 26 24 23 24 26 29 33 38 42 45
7 7 8 9 9 9 9 8 8 9 10 10 11 12 13 13 14 16 16 18 20 21 24 27 31 35 42 51 55 55 60 67 69 70 66 63 66 63 59 63 74 80 77 75 73 72 74 69 68 70 67 69 70 64 62 59 57 59 60 59 59 58 57 54 51 45 42 37 37 53 56 41 33 29 25 23 18 17 15 13 14 16 19 24 29 32 37 45
7 7 8 9 9 10 10 9 9 9 9 10 11 12 13 13 14 15 16 18 19 22 26 30 35 40 48 54 55 58 60 61 66 66 62 62 62 59 57 59 65 71 73 70 66 65 69 65 64 69 64 63 67 65 64 62 55 57 59 57 59 56 47 44 41 36 32 27 31 46 45 33 27 19 15 13 10 10 10 11 12 13 17 19 21 28 40 51
7 7 7 8 9 10 11 11 11 10 10 10 10 11 12 13 14 15 17 17 17 20 24 31 37 42 53 57 52 52 52 53 57 54 51 54 56 54 55 56 54 57 64 67 64 57 55 56 57 64 62 58 63 64 64 62 55 57 58 54 53 46 35 33 32 28 26 22 26 39 33 21 16 11 10 10 11 12 12 15 14 16 19 17 25 37 44 46
7 7 7 7 8 9 10 11 12 12 12 11 11 11 11 12 13 14 15 16 19 19 21 32 38 44 58 59 44 38 40 43 46 43 40 43 46 47 47 48 48 50 55 61 66 61 50 45 44 50 56 61 63 61 64 62 54 51 50 47 44 40 33 29 27 24 25 21 20 27 23 15 12 10 13 13 15 16 14 17 16 18 18 18 35 42 35 35
7 7 7 7 7 8 9 10 11 12 13 13 12 12 13 13 13 14 15 17 19 19 21 29 36 41 47 45 37 31 31 35 38 37 38 39 40 41 43 49 52 51 54 58 60 59 51 46 46 43 47 58 61 65 72 63 51 45 43 42 35 33 35 30 27 23 21 19 16 17 15 13 13 15 16 14 15 15 15 17 15 17 15 15 34 37 25 30
8 7 7 7 7 7 8 9 9 11 12 13 13 13 14 15 15 16 17 18 21 23 24 26 42 53 42 31 31 28 27 33 37 39 42 44 47 49 50 56 57 55 58 58 53 53 51 48 49 46 41 46 52 68 74 52 42 45 43 39 31 29 32 29 25 19 17 19 19 19 15 15 17 15 14 13 14 14 15 15 13 17 17 15 34 39 22 21
8 8 8 8 7 7 7 8 8 9 10 12 13 14 14 15 17 19 20 20 22 26 25 24 37 49 37 27 27 26 29 37 41 46 50 53 57 58 60 60 57 60 62 57 53 53 52 49 50 51 47 40 39 47 45 29 29 36 36 36 33 29 26 24 21 19 20 19 20 23 22 22 21 16 15 13 11 13 15 16 20 27 27 22 32 41 31 18
9 9 9 8 8 8 8 8 8 8 9 10 11 13 14 16 17 20 22 21 21 23 23 23 26 28 26 27 29 30 36 43 48 53 56 59 62 61 61 59 57 61 59 50 47 42 46 55 51 44 41 34 30 29 22 19 23 28 31 32 32 27 22 23 20 21 29 24 23 31 29 25 23 19 18 16 18 22 18 18 26 27 25 24 21 26 29 21
10 9 9 9 9 9 8 8 8 8 9 9 10 11 13 15 16 19 22 21 22 23 23 24 25 25 26 29 31 37 43 47 51 58 59 60 65 62 54 52 54 51 42 37 32 22 32 47 35 24 27 25 24 22 16 17 22 27 28 26 29 25 19 21 18 25 40 35 33 37 30 25 26 24 21 24 32 32 21 17 22 18 16 20 16 14 15 20
11 10 10 10 10 9 10 10 9 10 9 9 10 11 11 12 14 16 19 20 19 22 22 22 24 26 27 29 31 37 44 46 48 54 56 54 57 54 41 35 37 32 26 26 23 19 24 27 18 17 22 19 15 15 13 15 20 23 28 33 34 26 22 22 17 26 42 43 41 36 29 28 29 26 23 26 32 30 22 17 16 16 16 16 15 15 11 17
11 11 10 10 11 10 10 11 11 11 11 12 11 12 13 13 15 15 16 19 17 17 18 18 21 23 25 28 28 31 38 41 42 45 45 43 41 37 29 23 21 19 19 21 29 37 30 16 16 19 18 15 14 16 17 19 18 17 30 43 35 26 31 30 22 26 31 35 41 36 27 27 29 27 22 23 30 31 25 18 15 16 16 16 14 15 12 13
9 11 11 11 11 11 11 11 12 13 13 14 14 15 16 16 17 17 18 20 18 16 17 16 17 18 20 22 23 27 32 33 35 34 32 33 32 29 27 23 20 20 18 17 23 31 24 14 17 17 15 17 17 18 18 21 20 14 21 29 21 19 27 29 32 35 28 29 39 41 34 26 24 27 23 22 29 29 22 17 17 17 15 16 15 14 14 12
8 10 11 11 10 11 11 11 12 13 14 15 16 17 19 20 20 19 20 21 19 20 22 21 20 19 17 18 19 22 25 25 26 26 24 26 27 27 27 25 23 22 21 19 17 17 14 14 15 15 15 16 16 17 16 18 22 18 17 19 18 20 21 23 29 31 31 34 34 36 43 37 28 28 24 22 25 24 20 18 18 18 16 16 15 15 15 14
9 8 10 11 11 10 10 11 11 11 13 13 15 17 19 22 22 22 21 18 17 20 22 24 26 23 20 19 18 19 21 21 21 22 23 22 22 23 24 23 23 22 21 19 18 16 14 14 14 14 15 14 14 16 14 16 21 21 19 18 18 18 18 20 22 25 33 37 26 25 39 40 32 29 24 25 28 24 22 22 21 19 18 15 14 15 15 14
11 9 9 10 11 11 10 10 11 11 12 12 13 15 18 21 22 25 26 19 18 19 18 22 25 23 22 19 17 19 20 19 18 18 19 19 20 20 19 20 20 20 19 17 17 16 14 14 14 14 15 15 15 16 15 16 19 21 19 18 17 17 17 17 20 25 28 26 22 22 27 31 32 29 25 29 31 25 23 23 23 22 19 17 15 14 14 13
12 10 10 10 10 11 12 11 12 13 12 11 12 13 17 21 22 28 31 26 25 26 23 22 22 21 22 18 15 18 18 18 17 16 17 17 18 17 17 18 17 17 16 15 16 16 14 15 15 14 15 15 15 15 15 15 16 18 16 16 16 15 17 17 19 23 22 23 27 25 23 28 32 28 27 35 35 30 27 23 23 24 21 20 18 16 15 14
12 12 11 10 10 10 11 12 13 14 14 13 13 13 15 19 22 28 32 31 31 33 31 27 22 21 22 19 16 16 15 16 16 15 15 16 16 17 17 17 16 16 16 15 16 15 15 15 15 15 15 15 15 14 14 14 14 15 14 15 15 15 17 18 20 22 21 24 28 26 23 26 31 27 27 35 35 32 29 24 24 25 23 23 22 20 18 17
12 13 12 11 11 10 11 12 12 14 17 15 13 14 14 17 22 24 26 29 28 25 23 22 19 19 20 19 18 17 15 15 15 15 15 15 16 16 17 17 17 17 16 16 16 16 16 16 15 16 15 14 15 14 14 14 14 15 15 15 16 17 18 18 20 21 21 23 25 25 23 24 30 28 27 31 30 27 27 25 25 25 24 25 25 24 22 20
13 13 13 12 13 12 11 12 12 13 16 16 16 17 16 18 21 20 19 23 22 17 15 15 16 17 17 18 18 18 17 16 15 15 15 15 16 16 16 17 16 17 17 16 16 16 16 16 15 15 16 16 15 15 16 16 16 16 16 17 17 19 20 20 21 21 24 28 26 24 25 25 29 29 27 28 27 25 25 24 25 26 26 27 26 27 25 24
14 13 13 13 13 13 13 12 12 13 14 17 18 17 18 21 20 18 18 18 15 13 14 15 15 16 16 17 17 17 18 18 17 17 16 16 16 15 16 16 16 17 19 18 17 16 16 16 16 15 16 16 16 16 16 17 17 17 17 18 19 21 23 23 25 25 27 30 27 26 27 27 27 29 29 28 27 26 25 24 25 26 27 28 29 29 28 27
15 14 13 13 13 14 14 14 13 13 14 16 17 16 19 21 20 18 17 14 12 12 13 13 14 15 15 15 16 16 17 18 18 19 18 18 17 16 16 16 16 16 17 18 17 17 17 16 16 16 16 16 16 17 18 18 18 19 20 20 21 24 26 25 27 28 28 28 27 26 27 28 29 30 30 30 29 27 25 24 25 26 27 29 30 30 29 30
15 15 13 13 13 14 15 15 15 14 15 15 15 16 19 20 18 17 15 12 13 12 11 11 12 12 13 14 14 15 16 17 17 18 19 19 19 19 18 17 17 17 16 17 17 17 17 16 17 17 16 16 17 18 19 20 20 21 22 23 23 24 26 26 27 28 28 28 27 26 27 28 30 31 31 30 30 29 27 25 24 25 27 28 30 30 30 31
16 16 15 14 14 14 14 15 16 16 16 16 16 16 18 20 17 15 13 13 13 11 10 11 11 11 12 12 13 15 16 16 16 17 18 19 19 20 20 20 20 19 19 18 18 18 17 16 16 16 16 17 18 18 20 21 22 22 22 24 24 24 25 27 27 28 28 28 26 26 28 29 29 30 31 31 30 30 30 28 26 25 26 28 29 30 30 31
16 16 15 15 14 14 14 14 15 16 16 17 18 17 18 20 19 16 14 12 11 11 10 10 11 14 15 14 12 14 16 17 17 16 17 18 19 20 21 22 21 22 22 21 21 21 21 20 19 18 18 18 18 19 21 23 24 24 24 24 24 24 25 26 27 28 28 29 28 27 28 29 30 30 31 31 31 31 31 30 29 26 26 28 30 30 30 31
16 16 16 16 15 15 14 14 14 15 16 17 18 18 18 19 20 22 19 14 11 10 10 10 12 17 22 20 14 12 15 17 17 17 17 17 18 19 20 22 22 23 23 23 23 23 24 25 24 23 22 21 20 21 23 25 27 27 26 25 24 24 24 25 26 27 28 30 29 28 29 29 30 31 31 32 33 33 33 32 31 29 27 28 30 31 30 31
15 16 16 16 16 16 15 15 14 15 15 16 17 18 18 18 20 22 23 22 18 13 10 11 13 17 22 24 19 15 15 16 16 17 18 18 19 19 20 21 22 23 24 24 24 24 25 26 26 25 25 24 22 22 23 25 27 28 27 26 26 25 24 24 26 27 28 30 30 29 29 30 30 31 31 33 33 33 34 33 32 30 28 29 31 31 31 31
14 15 16 16 16 16 16 15 15 15 15 15 16 16 17 18 20 20 22 25 24 20 15 13 14 17 21 22 21 19 17 15 16 17 18 19 20 21 21 21 22 23 24 24 24 24 25 24 24 23 23 26 25 24 25 25 25 25 25 25 24 24 24 24 26 27 28 29 29 29 29 29 30 31 31 33 34 34 35 35 33 30 29 30 31 32 31 30
12 14 15 15 15 16 16 16 16 16 16 16 16 16 16 17 19 19 20 23 24 22 18 16 16 18 19 21 21 20 18 17 17 17 19 20 20 21 20 21 22 23 23 23 22 22 23 21 20 19 19 21 23 22 22 21 19 18 19 20 19 19 20 21 22 24 25 27 28 28 28 28 29 30 31 32 34 34 34 34 33 31 30 31 32 33 31 29
11 13 13 14 15 16 16 16 16 15 16 16 16 16 16 16 17 18 19 21 23 23 21 19 18 18 18 20 21 21 20 19 19 19 19 20 20 20 20 20 21 22 22 22 20 19 20 18 16 15 14 15 16 16 15 15 14 14 14 15 14 14 16 18 19 20 21 22 24 25 26 27 28 30 31 32 34 34 33 33 32 31 30 31 32 33 31 29
12 12 13 13 14 15 15 15 16 15 15 16 16 16 16 16 17 17 18 19 20 23 23 22 20 20 19 19 20 21 21 21 21 21 21 21 21 20 19 19 21 22 21 21 20 17 16 16 14 13 13 13 13 13 14 14 14 14 14 14 14 14 14 16 18 19 19 19 20 21 23 25 27 29 30 32 33 34 32 31 31 30 30 31 33 33 30 28
14 13 13 13 13 14 14 14 15 15 15 15 16 16 16 16 16 17 17 17 18 20 23 25 24 24 23 22 21 21 21 22 22 21 22 21 21 21 19 19 19 20 19 19 18 16 15 15 15 14 14 14 14 15 15 15 15 15 15 15 15 15 15 15 15 17 18 18 18 19 21 23 25 27 30 31 33 34 33 30 29 30 30 32 33 32 29 27
17 16 15 15 14 14 14 15 14 14 14 14 15 15 15 15 16 16 16 17 17 17 19 21 23 23 23 23 23 22 21 22 22 22 21 21 21 21 20 19 18 17 18 18 17 17 17 17 17 16 15 15 15 16 16 16 16 16 16 16 16 16 16 16 16 15 16 16 17 18 19 21 24 26 29 31 32 34 33 30 28 29 30 31 32 30 28 27
21 19 18 17 16 16 16 16 15 15 15 15 14 14 14 15 15 15 16 16 16 16 16 17 18 18 20 21 22 22 22 22 22 22 22 21 21 21 20 19 18 17 17 17 17 17 17 17 17 17 16 16 16 16 16 16 17 17 17 17 17 16 16 17 17 16 16 15 15 16 17 19 23 25 27 30 32 34 34 32 28 28 30 30 29 28 27 26
30 27 24 21 19 18 18 18 18 17 17 16 16 15 15 15 16 17 16 17 17 17 16 17 17 16 17 18 20 22 23 23 23 22 22 22 22 22 21 20 19 18 18 17 17 17 17 17 16 17 17 17 17 17 17 17 18 18 18 18 17 17 17 17 17 17 17 16 15 15 16 18 21 25 26 29 31 33 35 34 30 29 30 29 27 27 26 26
40 37 34 30 26 23 21 21 20 20 21 21 20 20 18 18 19 21 21 20 21 21 20 20 20 19 18 18 18 19 21 24 25 24 22 21 21 21 22 21 21 20 19 18 18 18 18 17 17 17 18 19 19 19 18 19 19 19 19 19 19 18 17 17 17 18 18 17 16 15 15 17 20 23 25 28 31 33 34 35 33 31 30 29 27 26 27 27
47 45 42 39 36 33 29 26 25 24 25 25 26 26 26 25 25 27 27 27 27 27 27 27 27 26 24 22 20 19 19 20 24 25 25 24 22 21 21 21 21 21 21 21 20 19 19 19 18 18 19 20 20 20 20 20 21 21 20 20 19 19 19 18 18 18 18 18 18 16 15 16 19 21 24 27 30 32 34 35 35 33 32 31 29 28 28 28
50 50 48 46 43 42 40 37 35 32 31 31 31 31 31 31 31 31 31 31 31 30 29 30 31 30 29 27 26 24 22 21 22 23 25 25 25 24 23 22 21 21 21 21 22 22 21 21 20 20 20 20 20 21 21 21 22 22 21 21 20 19 19 18 18 18 18 19 19 18 16 16 18 21 23 26 29 32 34 35 35 34 34 33 32 31 30 29
48 49 51 51 49 47 45 45 44 42 40 39 39 38 37 37 36 36 35 33 33 32 31 31 30 30 30 30 30 29 28 26 25 26 26 26 26 27 26 25 24 23 22 21 21 22 21 21 22 21 21 21 21 22 21 21 22 23 22 21 20 20 19 19 19 18 19 19 20 20 19 17 17 20 22 25 28 30 34 35 35 33 34 34 34 33 31 29
43 46 48 50 51 50 49 48 47 47 46 45 44 43 43 42 41 41 40 38 36 35 34 34 34 32 32 32 31 31 29 28 27 28 28 28 28 28 28 28 27 25 25 24 23 22 21 21 21 21 21 20 20 21 21 21 21 22 22 22 21 20 20 19 19 19 19 19 20 21 20 19 19 20 21 25 27 29 32 35 35 33 32 32 32 32 30 28
33 41 44 45 46 48 50 49 48 48 47 46 46 45 44 44 44 44 44 43 42 40 39 39 39 38 37 36 34 33 32 31 29 28 28 27 28 29 29 29 29 28 28 28 27 26 25 24 23 22 22 21 21 21 21 21 21 21 22 22 22 21 21 20 20 20 20 20 20 22 21 20 21 20 20 24 27 29 31 34 36 34 32 31 30 29 28 27
Wind_Speed
16 16 15 15 15 14 14 15 15 15 15 15 15 15 16 16 15 15 15 14 14 13 13 13 14 15 15 16 17 17 19 20 20 20 20 21 20 19 18 17 17 16 16 15 15 15 14 13 10 9 7 5 5 6 7 8 8 9 8 7 7 7 7 6 6 5 4 3 4 4 4 5 6 7 8 9 11 12 12 12 13 13 12 12 12 11 11 11
16 16 15 14 14 14 14 15 15 15 14 14 14 14 15 15 15 14 14 14 13 14 14 15 16 16 17 17 18 20 21 22 22 23 23 23 22 21 20 19 18 17 16 16 15 14 13 11 8 6 5 3 4 5 7 8 9 10 9 8 8 8 8 7 6 5 3 2 3 3 3 2 2 2 3 5 6 8 9 11 11 11 10 10 11 10 11 11
16 16 14 13 13 13 13 14 15 15 14 14 14 14 15 16 15 15 15 15 15 16 17 17 17 17 18 19 20 21 23 24 25 25 25 24 24 23 21 19 18 17 15 14 12 12 10 8 6 4 2 3 4 6 8 9 10 12 12 10 9 9 8 7 5 5 4 4 5 5 4 3 3 3 3 4 3 4 6 8 9 9 8 10 11 12 12 12
17 16 15 14 13 13 14 15 16 15 15 14 15 15 16 17 16 17 17 17 18 19 19 19 18 18 19 20 21 22 25 25 25 25 24 24 22 21 19 17 15 14 13 12 11 10 9 6 3 0 2 3 4 6 8 11 14 15 16 13 11 11 8 7 6 6 7 7 6 6 5 3 2 2 2 3 3 3 4 6 7 7 7 9 11 12 13 12
18 17 16 15 14 15 15 16 16 16 16 15 16 17 17 18 18 18 18 18 19 20 20 19 18 19 21 22 22 22 24 24 23 22 21 20 19 18 16 14 13 13 12 12 11 9 6 3 1 1 4 6 6 5 6 13 18 19 18 15 13 11 9 8 8 8 9 8 7 6 5 4 2 3 3 3 3 3 4 5 7 7 8 9 10 11 11 11
19 18 17 15 15 15 16 17 17 17 17 17 17 18 19 19 19 19 19 19 19 20 20 19 19 19 22 23 23 22 23 22 20 21 19 18 17 15 14 12 10 10 11 12 12 10 8 6 8 14 18 18 18 17 16 17 21 22 20 16 13 12 10 9 9 9 9 8 7 7 6 5 4 4 3 2 2 2 3 5 7 7 8 8 8 9 10 10
20 19 18 16 15 15 16 17 18 18 17 17 18 18 19 19 20 20 20 20 19 19 19 19 19 19 21 22 23 23 23 22 22 22 19 17 16 13 11 9 9 11 13 17 18 15 13 14 18 23 25 24 25 26 27 26 25 24 21 17 14 13 12 11 10 9 8 7 7 8 7 6 5 4 3 2 1 0 2 4 6 6 7 7 8 8 9 11
22 21 19 17 16 14 15 16 17 18 18 18 18 19 19 20 20 20 20 19 19 19 19 19 19 19 20 21 23 24 23 23 23 22 20 19 17 16 16 16 17 20 21 24 25 22 21 22 23 24 25 27 27 27 29 28 26 24 21 17 15 14 13 11 10 9 7 7 6 5 5 5 4 4 4 3 2 1 2 4 4 5 6 7 8 9 10 11
22 22 21 18 16 15 15 16 17 18 18 18 18 19 19 19 20 20 20 19 19 19 18 18 18 19 20 20 22 22 21 21 21 20 20 19 18 19 21 24 24 25 28 29 27 26 28 27 25 25 27 28 28 27 27 26 25 24 21 18 16 13 12 10 9 8 6 6 5 3 3 3 3 4 3 3 3 3 4 4 5 6 7 8 10 11 12 13
23 23 22 20 18 16 15 16 17 18 19 19 19 18 18 18 19 19 19 19 19 18 17 17 17 18 19 19 20 19 17 18 17 17 18 17 19 20 22 24 24 24 28 30 28 27 27 27 25 26 26 25 26 25 24 25 24 23 20 17 15 12 11 9 7 7 5 4 4 3 3 3 3 4 3 4 4 5 6 7 7 8 9 10 11 12 14 15
22 23 23 21 19 18 17 16 17 18 19 19 19 18 18 18 18 18 18 18 18 18 17 16 16 17 17 18 19 15 15 17 16 16 17 17 18 19 21 22 23 23 25 27 27 25 25 26 24 23 24 22 22 22 21 22 23 21 19 16 13 11 10 8 6 5 4 3 4 4 4 4 5 5 5 6 6 7 8 9 9 9 10 11 11 12 13 14
22 23 23 22 21 20 18 17 17 18 18 19 19 18 17 17 17 18 18 18 18 17 16 15 15 16 16 17 17 13 13 15 14 15 16 16 17 18 19 20 21 22 22 23 23 23 23 24 22 22 21 19 19 19 18 19 20 19 17 15 12 10 8 7 5 4 3 3 4 4 5 6 6 6 7 7 7 8 9 10 11 11 11 11 11 12 12 13
21 23 23 23 22 21 20 18 17 18 18 19 19 19 17 17 17 18 18 17 17 17 16 15 15 16 16 15 13 12 12 11 11 12 14 15 16 16 18 18 18 19 19 20 20 20 20 20 21 21 19 17 17 17 16 17 18 17 15 14 11 9 8 6 5 5 5 5 5 4 5 6 6 7 7 7 8 9 10 11 12 13 13 12 11 10 11 12
20 22 23 23 23 22 21 20 19 18 19 19 19 19 18 17 18 18 18 17 17 17 16 15 14 15 15 13 11 10 10 10 10 10 12 14 15 15 17 17 17 17 16 16 16 17 16 17 19 19 15 16 17 16 17 16 16 15 14 12 11 9 8 7 7 6 6 6 6 5 7 8 7 8 8 9 10 11 11 12 13 13 13 13 13 11 10 10
19 21 22 23 23 23 23 21 20 19 19 19 19 19 18 17 17 17 17 16 16 16 15 14 13 13 13 10 10 10 10 10 10 10 12 13 14 14 15 15 15 15 14 13 13 13 13 14 16 16 13 14 16 16 16 15 14 13 12 12 10 10 10 8 9 8 8 8 8 9 10 10 10 9 9 10 11 12 12 13 13 13 13 13 13 11 10 10
17 19 20 21 23 23 23 22 21 21 20 20 20 19 18 17 16 16 15 15 14 14 14 13 12 12 11 9 8 10 10 11 10 11 13 13 13 13 13 13 12 12 12 12 11 10 10 11 12 13 11 12 14 14 13 12 12 11 11 11 11 10 10 10 10 10 9 9 10 11 11 10 10 10 10 12 13 13 14 14 14 14 14 15 13 10 11 12
15 16 18 20 21 22 22 22 22 22 21 21 21 21 19 18 17 16 15 14 14 13 13 12 11 10 10 7 6 8 9 10 10 11 12 12 12 12 12 11 10 10 10 10 9 8 8 9 10 10 10 11 12 13 12 10 10 10 10 11 11 10 10 10 11 10 10 11 12 12 11 10 10 10 12 14 15 15 16 15 16 16 17 17 14 12 15 13
13 14 16 18 19 20 21 21 21 22 22 22 22 22 21 20 19 17 15 15 14 12 12 11 9 8 7 6 6 7 8 8 9 9 10 11 11 11 11 10 10 9 9 8 8 7 6 7 9 9 9 9 9 10 10 7 7 8 8 10 10 11 11 11 11 11 11 11 12 12 12 11 11 13 15 15 16 17 17 17 18 18 19 20 16 14 18 17
10 12 14 15 17 18 20 20 21 22 22 22 22 22 22 21 20 18 17 16 14 12 12 11 10 9 6 5 6 6 6 7 7 8 9 10 11 11 10 9 9 8 7 7 6 5 5 5 7 7 8 8 8 8 7 6 7 8 8 9 10 11 11 11 11 11 12 13 12 12 12 12 13 15 15 16 17 17 18 18 18 18 18 20 18 15 17 19
8 10 11 13 14 16 17 19 19 20 22 22 22 22 21 21 20 19 18 18 16 14 13 12 11 10 8 5 5 6 6 6 6 6 7 8 9 9 10 8 6 6 6 6 5 4 4 5 6 6 6 7 8 7 7 7 9 10 10 10 10 11 11 11 12 11 12 13 12 12 13 14 14 15 15 15 16 16 17 18 17 17 18 18 19 18 17 17
6 8 9 11 12 13 15 16 17 18 20 21 22 22 22 21 20 19 18 19 18 16 15 15 13 11 10 7 6 7 7 7 6 4 5 7 7 7 8 7 5 6 6 5 4 3 3 5 5 6 6 8 10 9 9 9 11 13 12 12 12 11 12 12 12 11 11 12 12 13 14 14 14 14 15 15 15 15 17 18 17 18 19 18 18 19 18 18
5 6 7 8 10 11 12 13 15 16 17 19 20 21 22 22 21 20 20 20 19 18 17 17 16 14 13 11 10 10 9 7 7 6 6 7 7 7 9 9 8 9 8 6 6 5 6 7 8 9 11 12 13 12 11 11 13 14 13 12 11 11 12 13 12 12 11 11 12 13 14 14 14 14 16 16 15 16 17 18 18 18 18 18 18 18 19 19
4 4 5 7 8 9 10 11 13 14 15 16 17 19 19 19 20 20 20 21 20 19 19 19 18 17 16 16 15 15 12 10 10 9 9 10 10 11 12 12 12 12 11 9 8 8 8 10 12 14 15 16 15 14 14 14 15 15 13 12 11 11 12 12 12 13 13 12 12 13 14 15 15 15 17 17 17 17 18 19 19 19 18 18 18 18 18 20
3 4 5 5 6 7 8 9 11 12 13 14 15 16 17 17 17 17 17 18 19 19 19 19 19 19 18 18 18 17 15 14 13 12 13 13 12 13 14 14 14 14 14 14 13 12 13 15 16 17 18 18 17 17 17 16 15 14 14 13 12 13 13 12 12 13 14 13 13 13 14 15 16 16 17 18 18 18 19 20 20 20 19 18 18 18 19 20
4 4 4 5 5 5 6 7 8 10 11 12 13 14 14 15 15 16 15 14 15 16 16 17 17 17 18 18 18 18 17 16 16 15 15 15 15 15 15 16 16 16 16 16 16 16 16 18 18 19 19 19 19 18 17 17 14 12 13 13 13 13 13 13 13 13 14 13 12 12 11 13 15 16 17 18 17 18 20 20 20 20 20 19 19 19 20 20
4 4 5 5 5 4 4 5 6 7 8 9 10 11 12 12 13 14 15 13 13 12 13 15 15 15 16 16 17 18 17 17 17 17 16 16 17 16 17 18 18 17 16 17 18 17 17 18 19 19 19 18 19 18 16 16 15 12 11 12 13 13 13 13 13 13 13 11 10 12 11 11 13 15 16 16 16 17 19 19 20 20 20 20 20 20 21 21
5 5 5 5 5 4 4 4 3 4 5 6 8 9 10 11 11 12 12 12 12 11 11 14 14 14 14 14 16 17 16 16 16 17 17 17 18 17 17 18 17 16 16 17 18 17 17 18 18 18 17 17 17 16 15 15 14 12 11 11 12 13 13 12 12 12 11 9 10 12 12 12 12 14 15 15 15 16 18 19 19 20 21 22 22 22 22 23
7 6 6 5 5 4 4 4 2 2 3 4 5 7 9 10 10 10 9 9 10 10 11 13 13 14 14 14 15 16 16 15 15 16 17 17 18 18 18 18 17 17 16 17 17 16 15 15 16 15 15 15 14 14 13 13 13 12 11 11 11 11 11 11 11 10 9 9 10 11 11 12 11 12 14 14 14 15 17 18 19 19 21 22 22 22 23 23
9 8 7 6 5 5 5 4 3 1 1 2 4 6 8 9 9 9 9 7 8 8 9 10 11 12 12 12 14 14 14 14 15 15 15 16 17 17 17 17 17 17 16 17 17 15 15 14 14 13 13 13 13 12 12 12 12 11 10 11 11 10 10 9 10 9 8 9 10 9 10 11 10 12 14 14 14 15 16 17 18 19 20 21 21 22 22 23
10 10 9 8 6 5 5 4 3 2 2 2 3 5 6 7 7 7 7 6 7 8 8 9 10 10 10 11 12 12 13 13 14 14 14 15 15 15 15 15 15 15 15 16 16 15 14 14 13 13 12 12 11 11 11 11 11 10 10 10 10 9 9 8 9 8 7 8 8 8 9 10 10 12 13 14 14 15 16 17 17 18 19 20 21 21 22 22
10 10 10 9 8 6 5 4 3 3 3 3 2 3 4 5 4 4 5 6 6 6 7 8 9 9 9 9 10 10 11 12 12 12 13 13 13 13 14 13 12 13 13 13 14 13 13 12 12 12 11 11 11 10 10 9 9 9 9 9 9 9 8 8 8 8 8 8 8 8 9 10 11 11 12 12 13 14 15 16 17 17 18 19 20 20 21 22
12 11 10 10 9 8 6 5 4 4 4 3 2 2 2 2 1 3 6 5 5 5 5 6 8 8 8 8 8 8 8 9 10 10 11 10 10 11 11 11 10 11 12 11 11 11 11 11 11 11 11 10 10 10 10 9 8 8 8 8 8 9 8 8 8 8 8 7 8 8 9 10 11 11 12 12 12 13 14 15 16 16 17 18 18 19 20 21
14 13 11 10 9 9 8 7 6 5 4 3 2 2 2 1 1 4 6 4 4 5 4 4 5 6 7 7 6 6 6 6 7 8 8 8 9 9 9 9 8 9 9 9 9 9 8 8 8 8 9 9 8 9 8 8 7 7 7 7 8 8 8 8 8 7 7 7 8 9 10 11 12 12 12 12 12 13 14 14 15 15 16 17 18 19 20 20
16 15 13 11 10 9 9 8 7 6 5 4 3 2 1 1 2 5 5 4 4 4 4 3 2 3 4 5 5 5 4 4 5 5 6 6 7 7 6 6 7 7 7 7 7 7 6 6 6 6 6 6 7 7 6 6 7 7 7 7 7 7 6 7 7 7 7 8 9 10 11 12 12 12 12 12 13 13 13 14 14 14 15 16 17 18 19 20
18 16 15 13 12 11 10 9 8 8 7 5 4 3 3 2 3 5 5 4 4 4 4 3 1 0 1 2 3 4 3 3 3 3 3 4 4 4 4 4 4 4 4 4 4 4 4 4 4 3 4 4 4 5 5 5 5 5 5 6 6 6 6 6 6 6 7 8 10 10 11 12 11 12 12 12 13 13 13 14 14 14 14 15 17 18 19 19
20 18 17 15 13 12 11 10 9 9 8 7 6 5 4 4 5 5 5 5 5 5 5 4 2 1 1 1 1 1 2 2 2 1 1 1 2 2 3 3 3 3 3 2 2 2 1 2 2 2 2 2 3 3 4 4 4 5 5 5 5 4 5 5 5 6 7 9 10 11 12 12 12 12 12 13 13 13 13 14 14 14 14 14 16 17 18 19
22 21 19 17 16 15 13 12 11 10 9 8 7 6 6 6 6 6 6 6 6 6 6 4 4 3 3 3 3 1 0 1 1 0 1 1 1 2 2 3 2 2 2 2 1 2 2 2 3 3 3 3 3 3 4 4 5 5 6 5 4 4 4 5 6 7 7 9 11 12 12 12 13 13 13 13 14 14 14 14 14 14 14 14 15 16 17 18
24 23 21 19 18 17 15 14 12 11 10 9 8 7 7 7 7 7 7 7 7 6 6 5 5 4 3 4 4 3 2 1 1 1 2 3 2 2 2 2 2 2 2 2 2 2 3 4 4 4 4 3 3 4 4 5 5 6 6 6 6 6 6 6 6 7 7 8 10 11 11 11 12 13 13 13 14 14 14 14 13 13 13 13 14 15 17 18
25 25 23 22 20 19 18 16 15 13 12 11 10 9 8 7 7 8 8 8 7 7 6 6 5 4 3 2 3 4 4 3 2 2 3 4 4 3 3 2 3 3 3 3 2 2 3 4 4 4 4 3 3 3 4 5 5 6 7 8 8 8 7 7 7 8 8 8 9 11 12 12 12 12 13 13 13 14 14 14 13 13 13 13 13 14 16 17
25 26 25 24 22 21 20 18 17 15 14 13 12 11 10 9 8 7 7 8 8 7 7 6 5 5 4 3 3 4 5 4 4 4 4 5 5 5 3 3 3 4 4 4 3 2 2 3 4 4 5 4 3 4 4 5 6 7 8 9 9 9 9 9 9 9 9 9 10 10 11 12 12 12 13 13 13 14 14 13 12 12 12 12 12 14 15 16
24 25 26 25 24 23 22 21 19 17 16 15 14 13 12 11 9 8 7 7 8 8 7 7 7 6 6 5 5 5 6 6 6 6 6 6 6 6 5 4 4 5 5 5 4 3 3 3 3 4 4 4 4 4 5 6 7 7 8 9 10 11 11 11 11 10 10 10 11 10 11 12 12 12 12 13 12 13 13 12 12 11 11 11 12 13 14 14
24 25 25 25 25 24 23 22 20 19 18 18 17 15 14 13 12 10 9 8 8 8 8 8 8 8 8 8 7 7 7 7 7 7 7 7 7 7 6 5 5 6 6 5 5 4 3 3 3 3 3 4 4 5 5 6 7 7 8 9 10 11 12 12 12 11 11 11 11 11 11 11 11 12 12 12 12 13 13 12 11 11 10 10 11 12 12 13
25 25 25 25 25 24 24 23 22 21 20 20 19 17 16 15 14 12 11 10 9 9 9 9 9 8 9 9 8 8 8 8 8 8 7 8 8 8 7 6 6 6 6 6 6 5 4 4 4 4 4 4 5 6 6 7 8 9 9 10 11 11 12 12 12 12 12 12 11 12 12 12 11 11 12 12 12 12 12 12 11 10 10 9 10 10 11 12
26 26 25 25 25 24 23 22 22 21 21 21 20 19 18 16 15 14 13 12 11 11 10 10 10 9 9 9 8 8 8 9 9 9 8 8 8 8 8 7 6 6 6 6 6 6 6 6 5 6 6 6 7 7 8 8 9 10 11 11 12 13 13 14 14 13 13 13 12 12 13 13 12 12 12 12 11 11 12 11 10 10 10 9 8 9 10 11
25 26 26 26 26 25 24 22 22 21 21 21 20 19 18 17 16 15 14 13 13 13 12 12 12 11 10 10 9 9 10 9 10 10 9 8 8 8 9 8 8 7 7 7 8 7 8 8 7 8 8 9 9 10 10 10 10 11 12 12 13 14 14 15 15 15 14 14 13 12 13 13 12 12 12 12 11 11 11 11 10 9 9 8 8 8 9 11
26 26 26 26 26 26 24 23 23 22 21 21 20 20 19 18 17 16 15 14 14 14 14 13 13 13 12 12 12 12 11 10 10 10 10 10 9 10 10 10 10 9 9 9 9 9 10 10 10 10 10 11 12 13 13 13 12 12 13 13 14 14 15 15 16 16 16 15 14 13 14 14 13 13 12 12 12 11 10 11 10 9 9 8 7 8 9 11
27 27 26 26 26 26 25 24 23 23 22 21 20 19 19 18 17 16 15 15 14 14 14 14 14 14 14 14 14 14 14 12 11 11 11 11 11 11 11 11 11 11 12 12 11 12 12 12 12 12 13 13 14 14 15 15 15 15 15 15 15 15 15 16 16 16 16 16 16 15 15 15 14 14 13 13 12 11 10 10 10 10 9 8 8 8 9 11
30 29 28 27 27 26 24 24 24 23 23 22 21 19 18 18 18 17 16 15 15 15 15 14 14 15 15 15 15 16 15 14 13 13 12 12 12 12 12 12 12 13 13 13 14 14 14 14 15 15 15 15 15 16 16 17 17 17 17 17 17 17 17 17 17 16 16 16 16 16 16 15 15 15 14 14 13 12 11 11 11 10 10 10 9 9 10 11
34 32 30 29 28 27 25 24 24 24 23 22 21 20 19 19 18 18 17 17 17 17 16 16 16 16 16 16 16 17 16 16 15 15 15 15 15 15 15 14 14 14 14 14 15 16 16 16 17 17 17 17 17 17 18 18 18 19 19 19 19 19 19 18 18 17 16 16 17 17 17 16 15 15 15 15 15 14 13 11 11 11 11 11 11 11 12 12
37 36 34 32 31 29 28 27 26 25 24 23 22 21 20 19 19 19 19 19 19 18 17 17 17 16 17 17 18 18 18 17 17 16 16 17 17 17 17 17 17 16 16 16 16 17 18 18 18 18 19 19 19 19 19 19 19 20 21 22 21 21 21 20 20 19 18 17 18 18 18 18 17 16 16 16 16 16 15 13 12 12 11 12 12 12 13 13
41 39 37 36 35 33 31 30 29 28 27 26 24 23 21 21 20 20 20 20 20 19 18 18 17 16 17 17 18 19 18 18 19 19 18 19 18 19 19 19 19 19 19 19 19 19 20 20 20 20 21 22 22 21 21 21 21 21 22 23 23 23 22 22 22 21 19 19 19 19 20 20 18 17 17 16 16 17 16 15 14 13 12 13 13 13 13 14
45 43 41 39 38 37 35 33 32 31 30 28 27 26 25 23 22 22 22 22 21 19 18 18 18 17 17 18 18 18 17 17 18 18 19 20 20 20 20 21 21 21 21 21 21 22 22 22 23 22 23 24 24 24 24 23 23 23 24 24 25 25 24 23 23 23 22 20 19 19 20 21 20 19 18 17 17 17 17 17 16 15 14 14 14 14 15 15
Wind_Direction
47 51 51 50 48 45 42 40 40 40 41 42 43 46 48 48 49 51 53 53 56 59 61 63 66 70 74 80 85 88 90 92 93 94 95 94 94 95 96 97 98 98 98 98 97 95 95 96 99 107 117 130 151 163 167 171 163 147 148 165 178 183 182 182 184 193 203 210 221 219 217 227 236 239 241 242 242 239 237 237 241 246 251 254 256 249 240 246
49 53 53 52 49 45 41 39 38 39 40 43 45 47 51 52 53 55 57 58 58 60 62 64 69 75 81 85 89 91 91 91 90 90 89 89 88 86 85 85 85 85 85 87 88 87 88 90 90 98 113 139 161 173 176 169 158 154 159 170 178 177 171 167 163 163 166 170 177 172 165 179 186 183 205 221 232 231 224 228 232 238 246 253 255 250 252 266
51 54 54 53 51 46 42 41 41 41 43 45 49 52 55 57 58 60 62 63 63 65 67 70 76 81 84 86 88 90 90 89 87 85 84 84 82 81 80 80 81 81 81 80 81 84 84 81 77 83 131 183 193 201 193 176 167 167 168 171 174 168 159 148 141 135 131 140 149 146 141 142 145 145 165 181 199 209 209 226 230 231 247 255 255 255 259 266
52 55 55 54 53 50 47 46 46 45 46 48 52 57 60 62 63 65 66 67 69 71 73 77 81 84 86 87 87 88 88 86 84 84 84 85 84 84 82 81 81 82 82 79 77 80 81 81 77 66 217 212 214 216 202 186 179 173 170 170 166 157 148 135 128 124 131 144 145 139 137 133 140 163 200 197 185 190 206 234 236 230 243 251 253 253 252 254
52 56 57 57 57 55 53 50 49 49 49 52 56 61 64 66 66 67 69 70 73 75 76 79 84 88 90 88 88 88 88 87 87 88 88 88 88 87 84 82 82 83 81 78 77 83 90 98 88 89 118 126 128 132 157 170 173 171 166 160 152 147 141 133 131 129 137 147 143 136 134 138 152 172 203 211 186 196 217 235 243 242 243 243 247 249 250 252
52 57 58 58 59 58 56 54 52 53 54 57 61 65 68 70 70 70 71 72 74 77 78 80 85 90 92 91 91 89 88 90 89 88 89 89 87 86 86 87 88 83 78 81 85 95 99 86 86 97 103 103 97 92 101 128 148 157 155 147 142 140 137 136 136 137 142 147 145 143 144 146 152 158 166 173 168 209 236 242 245 246 246 242 243 247 249 251
51 56 57 57 58 58 58 57 56 57 58 61 66 70 72 73 73 72 72 72 73 75 78 81 86 91 92 93 93 89 89 90 86 85 87 86 83 78 72 74 93 93 90 91 89 88 89 89 95 101 99 95 94 94 97 108 124 136 138 136 137 136 135 137 135 136 142 148 149 148 146 139 130 124 120 107 94 332 268 259 254 250 252 253 253 252 250 249
50 55 56 55 55 57 59 59 59 61 63 66 70 74 77 77 77 75 72 71 72 74 77 81 87 90 91 93 93 92 92 91 88 88 89 87 81 71 59 63 88 99 96 89 83 79 81 89 96 98 94 95 99 101 102 107 114 121 125 127 131 132 134 135 131 132 140 144 145 142 135 122 103 90 77 59 32 335 271 268 270 271 274 275 272 267 260 256
49 53 55 54 54 55 59 62 62 64 67 69 72 75 78 79 78 76 73 70 70 73 76 81 86 90 92 93 94 97 98 94 92 90 86 83 75 65 59 62 77 93 95 89 84 81 81 87 93 96 96 97 101 103 106 110 112 116 118 121 123 126 128 129 127 130 137 135 128 115 99 88 74 59 47 38 6 324 305 302 303 302 299 295 290 286 279 273
49 53 55 55 55 57 59 62 64 65 68 70 72 75 77 79 79 76 73 70 70 72 77 82 86 90 96 98 97 100 101 95 90 84 78 72 67 62 58 61 66 78 89 90 88 87 86 87 90 94 97 97 100 102 107 110 111 112 113 115 118 120 121 121 124 127 131 127 112 88 66 52 54 53 32 17 360 339 333 328 324 318 310 304 299 294 289 287
51 53 55 56 57 58 59 62 65 67 68 70 72 75 77 79 81 79 75 73 72 74 78 83 86 91 97 99 99 102 100 93 86 78 72 65 63 62 60 60 62 68 79 86 88 89 90 88 88 91 94 97 101 105 109 111 111 112 112 112 112 113 113 111 113 110 109 108 91 75 56 28 23 34 21 8 358 345 341 336 332 325 316 309 301 296 294 293
52 54 56 57 57 58 60 62 65 68 69 70 72 74 77 81 83 83 80 77 77 78 80 83 86 91 94 95 97 99 93 88 83 76 70 64 61 62 63 61 63 68 73 79 84 87 88 89 92 93 93 96 101 105 107 105 105 105 105 107 106 103 98 91 83 68 57 52 50 51 54 35 13 11 7 1 356 350 350 348 343 337 329 321 310 303 300 298
53 56 57 59 59 59 59 61 63 67 69 71 72 74 77 81 84 86 85 83 82 82 83 84 86 88 91 94 96 94 88 82 77 73 67 64 61 60 63 65 68 72 74 76 80 83 85 90 92 91 95 99 99 101 99 96 96 95 97 101 100 94 85 74 61 51 48 45 36 41 57 43 22 13 12 14 15 13 11 6 359 352 346 341 332 321 315 313
54 57 58 60 61 60 59 59 60 64 67 69 70 73 75 78 81 84 85 86 85 85 86 86 87 85 87 92 92 90 87 79 74 68 63 64 63 60 61 67 72 74 75 75 78 81 83 88 89 88 94 99 98 97 93 90 90 91 94 92 89 84 77 68 62 55 52 48 37 46 55 47 41 37 36 38 36 30 22 13 4 356 352 350 347 345 342 328
56 58 59 61 62 61 60 59 60 62 64 66 68 70 72 73 75 76 79 82 84 87 87 87 85 83 84 81 74 77 75 70 68 63 63 65 62 59 60 64 68 71 72 72 74 78 81 85 90 92 93 93 94 91 88 87 86 85 86 82 77 75 71 65 60 53 53 54 48 52 55 54 53 50 47 46 41 34 26 16 6 358 353 352 354 353 342 329
59 59 60 61 62 62 61 61 61 62 64 65 66 67 69 69 69 70 72 75 79 84 88 89 84 82 88 79 58 59 58 56 60 60 62 65 62 58 57 54 54 59 65 69 71 75 80 83 88 93 94 88 86 83 80 81 82 79 79 79 74 69 68 64 59 56 58 61 61 61 61 58 54 52 50 47 44 36 30 23 13 6 360 1 6 351 336 339
62 61 61 62 63 64 64 63 63 64 65 65 66 66 67 68 68 68 69 71 75 79 84 88 88 85 84 76 51 46 47 47 52 56 59 62 59 53 50 46 42 49 58 67 74 81 85 82 80 85 88 86 85 82 76 73 79 80 78 80 77 70 69 67 64 64 64 64 65 65 61 55 50 51 50 46 43 37 31 25 18 13 7 10 16 360 353 353
64 64 63 63 65 66 66 66 66 66 67 67 67 66 66 66 67 67 68 70 73 76 81 83 92 97 80 62 48 37 41 48 48 50 55 58 56 50 48 45 42 49 58 68 78 87 87 78 78 81 81 84 85 83 82 82 85 83 78 79 79 76 76 74 71 67 64 63 64 62 56 51 47 47 46 42 41 37 31 25 18 15 9 11 16 7 3 1
68 67 67 67 68 69 69 69 68 68 69 69 69 68 66 66 66 66 68 70 72 77 83 84 89 98 89 63 50 40 43 53 49 44 47 51 52 48 42 40 48 53 58 70 76 79 81 74 75 76 75 80 84 90 99 101 93 87 83 82 83 85 83 79 73 67 64 61 59 58 53 50 46 43 42 40 39 37 32 26 19 14 9 9 12 9 3 5
74 72 72 71 71 71 72 71 70 70 70 70 71 71 69 67 67 68 69 70 71 74 79 83 85 88 90 80 65 62 62 60 53 42 44 47 47 44 37 36 53 59 57 68 74 78 87 85 80 78 82 87 90 98 99 94 90 88 85 85 87 87 84 79 74 71 67 59 56 55 50 47 46 41 39 38 37 36 33 28 22 16 13 11 11 12 7 7
86 81 79 77 76 75 74 74 73 72 71 71 72 73 72 70 70 70 71 72 71 71 74 78 83 87 89 90 84 81 77 68 63 49 47 48 43 47 47 43 52 68 77 83 81 84 90 95 102 103 99 92 90 92 88 86 89 89 89 90 89 85 83 78 73 74 70 57 53 52 46 44 46 41 37 36 34 35 34 30 25 20 18 16 12 13 10 10
106 98 90 84 82 80 79 78 76 73 72 72 73 73 72 71 70 69 70 72 71 71 73 74 79 84 87 89 88 87 86 79 74 66 61 55 47 53 57 56 62 78 93 102 103 103 93 95 108 111 105 97 94 96 92 89 91 94 95 91 88 85 81 74 68 71 68 57 54 51 44 41 41 40 36 35 34 35 35 31 27 23 21 18 15 14 11 12
134 125 112 100 92 87 84 81 79 76 73 73 72 72 71 69 68 66 65 68 70 71 72 73 76 80 84 86 87 88 90 86 80 76 74 68 61 62 62 62 67 78 88 92 98 101 97 100 106 107 106 103 103 104 99 93 92 95 97 94 88 84 80 72 64 63 60 59 58 52 46 41 40 40 35 32 32 32 32 30 28 25 23 20 16 17 18 18
164 158 142 126 110 98 91 85 82 80 76 73 71 70 69 67 64 64 64 66 69 69 70 70 72 75 78 81 83 85 88 88 86 83 80 77 74 73 72 69 70 77 86 90 92 97 103 106 106 107 107 108 108 105 102 97 93 94 95 96 91 82 78 73 66 61 55 56 59 55 48 40 40 42 36 32 32 30 31 29 27 25 24 22 18 18 22 22
180 179 168 156 140 119 103 91 83 79 76 73 69 66 66 66 63 62 62 63 65 65 66 68 69 70 73 77 80 83 86 86 86 84 82 82 80 78 79 78 77 80 86 91 93 96 102 104 104 105 106 107 106 103 103 102 99 96 90 89 86 79 74 71 71 67 56 50 52 56 52 36 35 39 36 34 32 29 30 29 26 26 25 23 20 20 22 23
186 189 184 172 161 149 129 108 87 74 71 69 65 60 60 62 60 61 61 60 62 61 64 69 69 69 70 74 79 82 83 82 83 85 83 83 82 80 80 81 81 81 84 88 89 91 96 98 100 101 102 104 104 104 103 101 101 98 85 80 79 75 72 70 71 69 60 51 46 51 53 38 31 32 31 32 30 28 29 28 26 27 27 25 23 23 25 25
193 194 193 185 173 166 157 135 104 70 59 58 61 58 58 59 62 66 64 60 65 67 69 73 73 72 70 70 75 79 80 81 82 85 85 85 85 85 85 84 85 86 87 89 89 90 93 96 97 100 101 101 99 100 98 96 97 95 84 78 77 75 73 71 70 69 65 57 45 44 48 43 31 23 23 26 25 24 27 28 25 25 27 26 24 25 27 27
200 198 198 197 191 179 176 167 147 75 46 51 60 62 64 66 70 76 73 67 73 74 72 74 74 72 69 66 70 75 79 83 84 84 86 87 88 88 89 90 91 91 93 94 92 92 93 94 94 96 97 97 96 96 94 93 94 92 87 82 78 76 75 72 70 67 59 53 45 34 36 40 31 19 18 20 18 18 23 25 23 23 25 24 22 24 27 28
204 204 202 203 201 192 189 186 179 162 73 75 70 74 80 78 78 83 83 80 80 77 74 73 70 67 67 66 68 73 78 81 83 83 84 86 88 89 91 91 92 93 93 93 93 94 94 93 93 93 93 94 94 93 92 90 90 89 86 83 78 75 73 71 67 61 50 47 41 25 24 32 29 20 18 17 14 13 19 23 22 20 21 21 20 21 24 26
206 207 206 206 205 201 194 184 176 165 147 127 93 88 93 88 83 86 90 89 83 80 78 77 71 65 65 67 68 71 75 77 80 82 82 83 85 87 88 87 87 88 87 88 90 92 92 92 92 91 91 91 91 90 88 87 87 85 82 80 77 72 67 62 59 51 42 40 32 16 16 25 26 20 16 14 10 9 15 23 22 19 19 19 17 17 19 22
210 210 209 208 208 206 199 189 177 159 150 141 117 103 105 95 82 89 102 101 90 85 84 84 80 72 66 67 67 67 70 72 76 78 79 81 82 84 86 86 85 84 80 80 83 86 88 91 92 92 91 90 90 89 86 84 83 82 80 77 72 64 54 48 46 38 33 30 19 9 11 20 23 17 12 10 6 4 12 20 21 19 18 17 15 14 15 17
212 213 212 209 209 209 204 200 193 176 160 148 128 112 115 87 68 120 124 113 99 96 92 88 87 83 77 72 68 66 68 71 73 74 76 79 82 83 84 85 85 84 82 80 82 83 84 87 90 93 94 91 90 88 85 81 78 76 72 66 60 51 39 35 34 28 25 16 4 5 10 15 18 13 7 5 2 1 6 14 18 18 18 16 14 13 14 15
213 215 215 210 207 208 208 206 201 195 185 170 150 127 115 56 108 145 141 126 115 112 102 91 89 91 92 86 80 75 73 72 72 74 78 79 80 80 80 84 83 84 85 85 84 84 84 86 88 90 92 91 86 81 76 73 68 61 56 51 49 46 34 27 27 21 13 1 355 2 9 12 12 7 3 2 0 359 0 5 10 14 16 16 15 15 16 16
214 216 216 212 207 207 208 207 204 205 206 196 186 179 160 126 148 159 160 149 139 132 118 109 94 89 96 96 92 87 80 75 69 69 72 72 72 73 75 80 83 83 85 86 85 84 83 85 88 87 89 90 85 77 68 62 56 49 46 42 40 40 31 21 18 11 359 350 350 358 5 8 5 360 358 360 360 359 357 356 359 5 9 12 14 15 16 17
217 216 217 214 209 208 209 208 205 206 209 209 207 206 194 176 178 181 181 174 166 158 145 136 135 101 76 86 93 90 86 83 74 64 59 58 60 61 63 69 74 77 79 81 83 81 78 78 81 82 82 83 84 81 69 53 44 38 36 34 30 28 24 16 9 2 353 344 345 355 1 1 360 356 355 357 359 360 358 353 352 354 358 5 10 11 11 14
220 218 218 216 212 211 211 208 206 204 205 208 214 215 206 193 190 189 190 189 184 176 167 158 164 212 279 318 41 84 89 85 77 72 48 34 37 35 37 44 49 53 61 64 56 51 41 23 19 17 21 25 33 48 47 35 28 19 13 14 14 11 11 9 3 360 354 342 341 352 356 353 353 352 352 354 357 359 358 354 351 347 348 357 3 3 4 7
222 221 220 218 215 215 213 210 208 204 202 204 210 214 212 207 200 194 193 193 190 186 183 175 173 199 250 277 283 291 67 81 64 22 315 323 327 335 353 11 18 16 22 27 7 347 336 334 334 328 329 335 343 357 5 7 5 357 351 351 350 351 354 359 359 358 354 343 338 343 350 349 347 348 349 350 353 357 357 355 351 346 345 352 357 356 355 359
223 223 222 220 218 218 217 215 211 207 204 203 205 209 211 213 212 209 205 201 201 202 199 193 188 194 227 258 265 272 274 279 296 292 301 309 310 307 315 331 338 339 341 339 325 319 325 329 327 322 324 320 317 330 340 344 346 342 340 340 340 343 346 351 352 349 349 343 335 336 341 343 343 345 346 345 347 352 355 353 349 347 347 350 353 349 348 354
223 224 225 223 221 221 220 218 215 212 210 207 207 209 209 211 216 219 218 215 214 215 215 213 207 200 207 238 254 263 269 271 271 269 285 299 302 299 295 296 302 307 312 309 302 301 316 325 327 336 348 340 320 321 321 324 333 337 338 337 337 339 340 343 343 340 340 338 333 333 335 335 339 343 344 342 343 347 351 350 347 347 348 351 351 345 345 354
223 225 226 225 224 223 223 222 218 216 216 215 216 216 213 211 214 219 222 222 222 223 224 225 224 216 210 215 238 253 255 254 256 255 265 280 288 287 279 265 267 277 284 286 285 284 298 313 322 339 360 1 346 335 326 330 339 340 336 332 333 336 337 337 336 336 335 332 329 329 329 329 334 339 341 341 340 342 346 348 345 346 349 350 349 345 346 358
224 225 226 226 226 225 226 225 223 220 219 220 222 222 220 217 216 217 219 222 225 229 230 231 232 231 227 224 228 239 246 248 250 251 257 268 277 278 272 256 252 260 264 264 270 273 274 289 306 330 350 353 347 340 335 336 339 335 332 332 334 337 337 335 333 332 331 327 324 323 323 324 329 334 338 340 340 339 342 345 344 345 348 348 347 347 352 2
225 226 226 227 227 227 227 227 226 223 222 223 225 225 225 223 221 220 220 220 223 229 232 233 235 238 238 236 234 240 248 250 253 257 261 268 273 276 274 263 254 258 257 253 257 258 256 265 283 308 332 336 333 332 329 328 328 327 330 334 334 334 335 335 332 328 325 323 321 319 318 320 325 330 335 338 338 336 338 343 343 344 347 347 347 350 356 2
225 226 227 227 227 227 228 228 228 226 224 225 226 227 227 226 226 225 225 225 226 228 230 231 235 240 243 245 244 246 252 255 259 262 266 272 276 277 278 273 261 257 255 252 255 258 257 261 272 288 306 315 318 322 323 324 326 328 332 334 333 331 332 332 329 324 320 318 317 317 316 317 322 326 330 334 335 333 334 339 342 343 346 348 348 352 357 359
224 225 226 227 227 227 227 227 228 228 227 227 227 228 228 228 229 229 230 231 233 234 234 236 239 241 245 250 251 251 253 256 260 265 268 272 275 276 278 278 271 262 256 255 258 263 267 273 279 286 294 300 307 312 317 322 325 328 332 334 334 332 331 329 326 322 319 316 317 317 313 313 317 320 323 328 330 330 331 334 338 340 343 347 349 351 355 354
222 224 225 225 227 227 226 226 227 228 228 228 228 229 230 229 230 231 230 231 234 238 240 241 244 246 247 250 252 252 253 253 258 263 266 266 268 271 273 275 272 267 262 261 264 267 271 275 280 285 289 294 299 304 308 314 318 322 326 328 329 329 328 327 324 322 321 318 317 314 309 310 312 311 315 320 324 326 326 327 330 333 335 339 343 346 349 347
222 223 224 225 226 226 225 224 226 227 228 229 228 229 230 231 232 232 230 229 232 237 240 242 245 248 249 250 251 252 253 254 256 260 264 265 264 265 266 267 268 267 266 266 267 270 273 275 279 282 286 289 294 298 302 306 310 314 318 319 320 323 324 324 323 322 322 319 316 312 307 306 306 304 307 312 315 318 319 319 320 321 323 325 330 337 341 340
223 223 223 224 225 226 224 223 225 226 227 228 228 227 228 230 231 232 231 230 231 235 239 242 245 247 249 251 252 253 254 255 254 256 261 263 264 264 264 264 266 267 268 268 269 270 272 274 276 279 282 285 288 292 296 300 304 308 310 311 313 316 318 320 321 321 320 317 314 310 304 302 302 300 301 303 306 309 311 313 312 311 311 312 314 323 331 332
226 225 224 224 225 226 225 224 225 225 226 228 227 226 226 227 229 232 233 233 234 236 239 243 246 249 251 253 254 256 256 256 255 255 257 260 263 265 266 266 266 268 269 271 273 274 274 274 275 278 280 282 284 287 291 295 299 302 304 306 309 312 313 315 317 319 318 315 312 308 302 299 298 297 297 297 298 301 304 306 307 304 303 302 304 312 319 324
228 227 226 226 227 227 226 225 226 226 227 228 227 226 226 227 229 232 235 237 238 239 241 243 246 250 254 256 257 258 259 260 260 259 260 261 263 265 266 267 268 268 270 272 274 276 277 278 279 280 281 282 284 286 289 293 296 299 301 303 306 308 309 311 313 315 316 313 310 306 301 297 294 293 292 291 292 295 297 299 301 300 297 296 298 304 310 316
230 229 229 228 229 229 228 227 228 229 230 230 230 229 228 229 230 233 236 238 240 241 243 244 245 248 251 254 256 258 261 263 263 263 263 264 264 265 267 268 270 271 272 273 274 275 276 278 279 280 282 282 283 285 287 290 293 295 297 299 302 304 305 308 309 311 312 311 309 305 301 296 292 287 285 284 286 289 291 292 294 296 295 293 294 298 303 309
232 231 230 230 231 230 230 230 231 232 233 234 234 233 232 231 231 233 236 239 241 242 243 245 246 246 248 250 253 256 259 262 264 265 266 266 266 267 268 269 270 271 273 274 275 276 276 277 278 279 281 281 282 284 285 287 289 292 294 297 299 300 302 305 306 307 308 308 307 304 300 295 291 284 280 278 278 282 285 287 289 292 294 294 294 296 300 305
232 233 232 232 232 232 232 233 233 234 235 236 237 237 236 235 234 234 236 238 241 243 243 245 247 248 249 251 253 255 257 259 262 264 267 268 269 270 270 271 271 273 274 275 276 277 277 278 279 279 280 281 283 284 285 287 289 291 292 293 294 296 299 301 302 303 303 303 304 302 297 293 290 284 278 274 273 275 279 283 286 288 292 294 296 296 299 305